Zurück zum Katalog

CTS

AktivKommunikationGEO
NORAD 8585·PAYLOAD·🇨🇦 Canada

Gestartet Jan 17, 1976 von Cape Canaveral Space Force Station

Loading…

TLE

AktuellSource: Space-Track

Epoche: Sep 14, 2026, 13:25 UTC

1 08585U 76004A   26257.55907938  .00000095  00000-0  00000-0 0  9995
2 08585   3.7056 270.6558 0017194 284.4091 221.0682  1.00238000123193

Verfolge CTS in Echtzeit mit AllMySat

Download on the App Store